User: anonymous   Login
Location: Unspecified
(0.0000°N, 0.0000°E)
Time: 01:44:19
(UTC+00:00)
Language:

USA 229 - Orbit

View from above orbital plane
View from above orbital plane
View from above satellite
View from above satellite

Ground track
Ground track

The orbit data is extracted from the following two-line orbital elements,

1 37386U 11014A   18146.99658982 0.00000000  00000-0  00000-0 0    03
2 37386  63.4436 221.5796 0100000   1.0962 358.9037 13.40753348    09
Epoch (UTC): 26 May 2018 23:55:05
Eccentricity: 0.0100000
inclination: 63.4436°
perigee height: 1031 km
apogee height: 1181 km
right ascension of ascending node: 221.5796°
argument of perigee: 1.0962°
revolutions per day: 13.40753348
mean anomaly at epoch: 358.9037°
orbit number at epoch: 0

The dashed part of the orbit path shows where the satellite is in the earth's shadow,  

DLR